Regional Weather Roundup
Issued by NWS Sterling, VA

Home | Current Version | Previous Version | Text Only | Print | Product List | Glossary Off
Versions: 1 2 3 4 5 6 7 8 9 10 11 12 13 14 15 16 17 18 19 20 21 22 23 24 25 26 27 28 29 30 31 32 33 34 35 36 37 38 39 40 41 42 43 44 45 46 47 48 49 50

977
ASUS41 KLWX 081010
RWRLWX

REGIONAL WEATHER ROUNDUP
NATIONAL WEATHER SERVICE BALTIMORE MD/WASHINGTON DC
500 AM EST MON FEB 08 2016

Note: "FAIR" indicates few or no clouds below 12,000 feet
with no significant weather and/or obstructions to visibility.
 TC=TEMPERATURE CELSIUS

 * =Non NWS site. Station does not report precipitation (e.g. rain,
    snow, etc.), thunder, or fog.

DCZ001-MDZ009-015-VAZ040>042-051-053>054-081100-
WASHINGTON METRO

CITY           SKY/WX    TMP DP  RH WIND       PRES   REMARKS
WASHINGTON NAT MOCLDY    36  22  56 NW13      29.78R WCI  27
DULLES         FAIR      28  20  71 CALM      29.78S
ANDREWS AFB    CLOUDY    35  22  60 NW10      29.76R WCI  27
FT BELVOIR     FAIR      35  20  54 NW7       29.78R
QUANTICO       FAIR      37  21  52 N12G25    29.80R
COLLEGE PARK*  FAIR      36  23  60 N7        29.77R
LEESBURG*      FAIR      32  27  80 N6        29.79F
MANASSAS*      FAIR      27  23  86 CALM      29.79S
GAITHERSBURG*  CLOUDY    30  18  59 CALM      29.80S

$$

MDZ006>007-011-014-081100-
BALTIMORE METRO

CITY           SKY/WX    TMP DP  RH WIND       PRES   REMARKS
BWI AIRPORT    CLOUDY    37  20  50 NW7       29.76R
MD SCIENCE CTR   N/A     39  20  46 MISG      29.76R
MARTIN STATE   CLOUDY    37  25  60 NW6       29.77R
ANNAPOLIS      CLOUDY    39  24  55 N10       29.75R
FORT MEADE*    CLOUDY    34  21  60 NW5       29.79R

$$

MDZ012-015-019>023-081100-
MARYLAND EASTERN SHORE

CITY           SKY/WX    TMP DP  RH WIND       PRES   REMARKS
OCEAN CITY     CLOUDY    40  34  79 N13G29    29.66R
SALISBURY      CLOUDY    39  31  72 N17       29.69R
BAY BRIDGE AP*   N/A     37  27  65 N10       29.75R
CAMBRIDGE*     CLOUDY    36  27  69 N5        29.72R
EASTON*        CLOUDY    37  26  65 NE8       29.76R

$$

MDZ017>025-081100-
SOUTHERN MARYLAND

CITY           SKY/WX    TMP DP  RH WIND       PRES   REMARKS
PATUXENT RIVER PTCLDY    38  26  62 N13       29.74R
ST INIGOES     CLOUDY    40  25  55 N7        29.74R
LEONARDTOWN*   CLOUDY    36  23  60 NW3       29.76R

$$

MDZ003>005-081100-
NORTH CENTRAL MARYLAND

CITY           SKY/WX    TMP DP  RH WIND       PRES   REMARKS
FREDERICK*     CLOUDY    23  23 100 CALM      29.82S
HAGERSTOWN APT CLOUDY    28  19  69 E6        29.78S
WESTMINSTER*   CLOUDY    30  27  86 NW5       29.76R

$$

MDZ501>502-081100-
WESTERN MARYLAND

CITY           SKY/WX    TMP DP  RH WIND       PRES   REMARKS
OAKLAND*       CLEAR     32  21  64 S5        29.68F
CUMBERLAND*    CLEAR     27  27 100 CALM      29.82F

$$

VAZ025>031-081100-
SHENANDOAH VALLEY

CITY           SKY/WX    TMP DP  RH WIND       PRES   REMARKS
WINCHESTER*    FAIR      28  23  80 CALM      29.79S
FRONT ROYAL*   FAIR      27  23  86 CALM      29.78S
LURAY*         FAIR      23  23 100 CALM      29.79R
NEW MARKET*    FAIR      22  21  96 CALM      29.77F
STAUNTON*      FAIR      25  23  91 CALM      29.79S
WAYNESBORO*    FAIR      23  21  93 CALM      29.76S

$$

WVZ021-048>050-054>055-081100-
EASTERN WEST VIRGINIA PANHANDLE

CITY           SKY/WX    TMP DP  RH WIND       PRES   REMARKS
MARTINSBURG    FAIR      19  17  92 SE3       29.79S FOG
PETERSBURG*    FAIR      23  21  94 CALM      29.79F

$$

VAZ036>039-050-081100-
CENTRAL FOOTHILLS

CITY           SKY/WX    TMP DP  RH WIND       PRES   REMARKS
CHARLOTTESVILL FAIR      27  22  81 W3        29.78S
CULPEPER*      FAIR      26  22  86 CALM      29.79S
ORANGE*        FAIR      28  23  80 CALM      29.80R
GORDONSVILLE*  FAIR      26  23  86 CALM      29.78R
WARRENTON*     FAIR      26  23  87 CALM      29.77F

$$

VAZ055>057-081100-
NORTH AND CENTRAL PIEDMONT

CITY           SKY/WX    TMP DP  RH WIND       PRES   REMARKS
FREDERICKSBRG* FAIR      34  23  64 NW6       29.77F
STAFFORD*      FAIR      31  22  67 NW8       29.81F WCI  24

$$

NCZ024-NYZ072-PAZ021-071-VAZ022-071-081100-
OTHER REGIONAL OBSERVATIONS

CITY           SKY/WX    TMP DP  RH WIND       PRES   REMARKS
NEW YORK CITY  CLOUDY    38  26  62 NE16G25   29.76S WCI  29
PHILADELPHIA   CLOUDY    38  20  48 NE17      29.74R WCI  28
PITTSBURGH     MOCLDY    32  22  66 SE6       29.68F
ROANOKE        FAIR      29  23  78 NW5       29.80S
RICHMOND       FAIR      33  22  63 NW9       29.76R WCI  25
RALEIGH        PTCLDY    32  23  69 CALM      29.82R

$$

ANZ530>537-081100-
MARINE OBSERVATIONS

STATION/POSITION TIME  TEMP    WIND        PRES
                       AIR SEA DIR/SP/G
                 (UTC) (F)     (DEG/KT/KT) (MB)
THOMAS PT LIGHT  1000   39 38  360/ 13/ 15 1008.1
BALT KEY BRIDGE  0900   38     340/ 10/ 12 1007.1F
COVE POINT       0900   39      10/ 14/ 20 1006.8S
LEWISETTA        0900   40 41  360/ 10/ 13 1006.0R
SOLOMONS ISLAND  0900   40 41  350/ 11/ 18   N/A

$$





USA.gov is the U.S. government's official web portal to all federal, state and local government web resources and services.